User: anonymous   Login
Location: Les Jeannots
(43.2262°N, 5.5774°E)
Time: 23:50:14
(UTC+00:00)
Language:

MetOp-B - Orbit

View from above orbital plane
View from above orbital plane
View from above satellite
View from above satellite

Ground track
Ground track

The orbit data is extracted from the following two-line orbital elements,

1 38771U 12049A   20275.57209807 +.00000012 +00000-0 +25324-4 0  9999
2 38771 098.7189 333.2354 0002356 072.8443 033.7490 14.21482384417103
Epoch (UTC): 01 October 2020 13:43:49
Eccentricity: 0.0002356
inclination: 98.7189°
perigee height: 818 km
apogee height: 822 km
right ascension of ascending node: 333.2354°
argument of perigee: 72.8443°
revolutions per day: 14.21482384
mean anomaly at epoch: 33.7490°
orbit number at epoch: 41710

The dashed part of the orbit path shows where the satellite is in the earth's shadow,  

DLR